Location: Slave Lake
(55.2830°N, 114.7830°W)
Time: 13:27:09
(UTC-06:00)

Amateur Radio Satellites - All Passes

Search period start: 26 April 2015 12:57
Search period end: 27 April 2015 12:57
Location: Slave Lake, 55.2830°N, 114.7830°W

Satellite Date Start Highest point End Downlink Frequencies (MHz)
Time Altitude Azimuth
UNISAT 6 26 Apr 12:57:34 13:00:04 14° 277° (W) 13:02:25 437.425
TISAT 1 26 Apr 13:01:25 13:04:00 16° 87° (E) 13:06:43 437.305
Gurwin Techsat 1B 26 Apr 13:02:45 13:05:59 17° 48° (NE) 13:09:21 435.225
BUGSAT 1 26 Apr 13:07:12 13:10:16 20° 270° (W) 13:13:17 437.445
UWE-3 26 Apr 13:10:40 13:14:38 27° 300° (WNW) 13:18:31 435.000/436.395/437.385
ESTCUBE 1 26 Apr 13:13:46 13:18:17 75° 104° (ESE) 13:22:46 437.505/2401.250
FUNcube-1 26 Apr 13:18:01 13:21:56 27° 300° (WNW) 13:25:46 145.935
DUCHIFAT 1 26 Apr 13:18:11 13:20:30 14° 275° (W) 13:22:40 145.980
POLYITAN 1 26 Apr 13:18:18 13:20:34 14° 275° (W) 13:22:41 437.675
UKube-1 26 Apr 13:21:55 13:25:55 36° 297° (WNW) 13:29:52 .
HO-68 26 Apr 13:22:45 13:28:14 24° 318° (NW) 13:33:36 435.675
Oscar 19 26 Apr 13:28:25 13:33:27 55° 67° (ENE) 13:38:33 437.125/150
YUBILEINY 26 Apr 13:30:10 13:38:41 48° 296° (WNW) 13:47:08 435.215
HUMSAT D 26 Apr 13:31:58 13:35:52 32° 297° (WNW) 13:39:42 437.325/437.525
DELFI C3 26 Apr 13:33:36 13:35:53 15° 306° (NW) 13:38:04 145.870
SPROUT 26 Apr 13:34:18 13:38:20 36° 96° (E) 13:42:22 437.525
Cosmos 2504 26 Apr 13:36:31 13:44:28 40° 85° (E) 13:52:20 435.465 / 435.565
ISS 26 Apr 13:39:38 13:42:01 19° 152° (SSE) 13:44:27 145.825
AIST 2 26 Apr 13:40:42 13:44:03 22° 241° (WSW) 13:47:16 435.215
Oscar 11 26 Apr 13:42:39 13:44:33 12° 310° (NW) 13:46:19 145.826/435.025
ZACube-1 26 Apr 13:44:15 13:47:28 19° 305° (NW) 13:50:36 437.345
VELOX 1 26 Apr 13:50:30 13:54:37 37° 296° (WNW) 13:58:41 145.980
CUBEBUG 1 26 Apr 13:53:09 13:57:27 57° 291° (WNW) 14:01:44 437.445
JAS-2 26 Apr 13:57:12 14:01:59 19° 41° (NE) 14:06:44 435.910
BEESAT 26 Apr 14:01:03 14:03:10 13° 83° (E) 14:05:28 436.000
SWISSCUBE 26 Apr 14:03:23 14:05:57 15° 84° (E) 14:08:41 437.505
ITAMSAT 1 26 Apr 14:05:15 14:10:07 43° 63° (ENE) 14:15:01 435.822/435.867
AISAT 26 Apr 14:08:59 14:12:46 27° 300° (WNW) 14:16:30 437.250
RS-15 26 Apr 14:10:36 14:18:36 26° 103° (ESE) 14:27:08 29.354- 29.394
PCSat 26 Apr 14:10:50 14:15:13 24° 4° (N) 14:19:37 145.827
AO-7 26 Apr 14:12:49 14:19:36 30° 40° (NE) 14:26:31 29.400- 29.500
50 SAT 26 Apr 14:15:40 14:18:38 19° 302° (WNW) 14:21:31 437.505
DX 1 26 Apr 14:17:07 14:19:41 15° 308° (NW) 14:22:09 434.975-435.025
SO-50 26 Apr 14:20:11 14:24:57 65° 324° (NW) 14:29:52 436.795
TISAT 1 26 Apr 14:36:07 14:40:24 80° 286° (WNW) 14:44:40 437.305
Gurwin Techsat 1B 26 Apr 14:39:52 14:45:08 65° 69° (ENE) 14:50:26 435.225
ESTCUBE 1 26 Apr 14:51:20 14:54:45 21° 304° (WNW) 14:58:04 437.505/2401.250
ITUPSAT 1 26 Apr 15:07:02 15:11:34 41° 97° (E) 15:16:05 437.325
HORYU 2 26 Apr 15:07:48 15:11:42 30° 61° (ENE) 15:15:41 437.375
Oscar 19 26 Apr 15:08:33 15:13:07 30° 267° (W) 15:17:41 437.125/150
SPROUT 26 Apr 15:10:27 15:14:26 35° 296° (WNW) 15:18:22 437.525
HO-68 26 Apr 15:11:35 15:13:33 11° 344° (NNW) 15:15:23 435.675
ISS 26 Apr 15:14:46 15:17:52 40° 171° (S) 15:20:58 145.825
KKS-1 26 Apr 15:18:07 15:20:24 14° 84° (E) 15:22:52 437.445
Cosmos 2504 26 Apr 15:28:41 15:37:34 68° 288° (WNW) 15:46:10 435.465 / 435.565
CUBEBUG 1 26 Apr 15:31:15 15:33:01 12° 311° (NW) 15:34:39 437.445
YUBILEINY 26 Apr 15:32:40 15:38:21 18° 325° (NW) 15:43:48 435.215
BEESAT 26 Apr 15:37:10 15:41:58 73° 103° (ESE) 15:46:45 436.000
JAS-2 26 Apr 15:38:16 15:45:42 51° 62° (ENE) 15:52:43 435.910
SWISSCUBE 26 Apr 15:39:52 15:44:41 81° 105° (ESE) 15:49:27 437.505
ITAMSAT 1 26 Apr 15:44:50 15:49:43 40° 263° (W) 15:54:35 435.822/435.867
PCSat 26 Apr 15:54:58 16:00:02 38° 29° (NNE) 16:05:06 145.827
GONETS M04 26 Apr 15:58:24 16:04:55 25° 75° (ENE) 16:11:41
SO-50 26 Apr 16:01:57 16:06:17 31° 347° (NNW) 16:10:41 436.795
AO-7 26 Apr 16:03:11 16:11:26 78° 64° (ENE) 16:19:46 29.400- 29.500
STARS 26 Apr 16:09:28 16:13:11 25° 92° (E) 16:16:56 437.465
TISAT 1 26 Apr 16:13:03 16:15:35 15° 307° (NW) 16:18:02 437.305
RS-15 26 Apr 16:18:22 16:29:10 73° 128° (SE) 16:40:23 29.354- 29.394
Gurwin Techsat 1B 26 Apr 16:21:07 16:25:36 26° 270° (W) 16:30:01 435.225
HORYU 2 26 Apr 16:43:51 16:48:13 48° 260° (W) 16:52:37 437.375
ITUPSAT 1 26 Apr 16:45:03 16:49:27 37° 298° (WNW) 16:53:48 437.325
ISS 26 Apr 16:50:50 16:53:54 38° 191° (S) 16:56:58 145.825
KKS-1 26 Apr 16:53:19 16:57:50 83° 105° (ESE) 17:02:21 437.445
HO-68 26 Apr 16:57:10 16:58:07 10° 11° (NNE) 16:59:10 435.675
CUTE-I 26 Apr 17:03:45 17:07:28 20° 51° (NE) 17:11:19 437.470
CUSAT 1 26 Apr 17:06:21 17:09:16 18° 79° (ENE) 17:12:53 437.405
Cubesat XI-IV 26 Apr 17:13:16 17:17:19 23° 53° (NE) 17:21:27 437.490
BEESAT 26 Apr 17:15:39 17:19:26 23° 304° (NW) 17:23:07 436.000
SWISSCUBE 26 Apr 17:18:28 17:22:04 21° 305° (NW) 17:25:35 437.505
JAS-2 26 Apr 17:23:06 17:30:46 53° 263° (W) 17:37:59 435.910
Cosmos 2504 26 Apr 17:25:56 17:32:52 24° 314° (NW) 17:39:25 435.465 / 435.565
MOZHAYETS 4 26 Apr 17:27:54 17:31:25 22° 89° (E) 17:35:00
PCSat 26 Apr 17:38:28 17:43:56 74° 231° (SW) 17:49:20 145.827
SO-50 26 Apr 17:43:41 17:48:02 30° 11° (NNE) 17:52:25 436.795
STARS 26 Apr 17:45:34 17:49:55 53° 293° (WNW) 17:54:16 437.465
DANDE 26 Apr 17:51:42 17:55:07 29° 87° (E) 17:59:32 436.750
GONETS M04 26 Apr 17:51:47 18:00:34 82° 100° (E) 18:09:29
Cosmos 2499 26 Apr 17:56:37 18:03:07 25° 77° (ENE) 18:09:39 435.465 / 435.565
AO-7 26 Apr 17:57:42 18:05:07 34° 268° (W) 18:12:27 29.400- 29.500
ISS 26 Apr 18:27:28 18:29:44 17° 210° (SSW) 18:31:57 145.825
KKS-1 26 Apr 18:30:45 18:33:59 19° 305° (NW) 18:37:09 437.445
RS-15 26 Apr 18:31:14 18:42:08 61° 338° (NNW) 18:53:31 29.354- 29.394
HO-68 26 Apr 18:38:21 18:43:14 20° 38° (NE) 18:48:16 435.675
CUTE-I 26 Apr 18:41:34 18:46:54 81° 72° (ENE) 18:52:15 437.470
CUSAT 1 26 Apr 18:46:47 18:51:00 78° 286° (WNW) 18:56:45 437.405
Cubesat XI-IV 26 Apr 18:51:32 18:56:53 87° 251° (WSW) 19:02:16 437.490
MOZHAYETS 4 26 Apr 19:04:32 19:09:08 65° 289° (WNW) 19:13:40
CUBESAT XI-V 26 Apr 19:07:31 19:10:51 20° 88° (E) 19:14:16 437.345
PRISM 26 Apr 19:12:47 19:14:18 12° 84° (E) 19:16:00 437.425
JAS-2 26 Apr 19:13:31 19:17:36 14° 285° (WNW) 19:21:11 435.910
PCSat 26 Apr 19:23:01 19:26:34 17° 252° (WSW) 19:29:58 145.827
STARS 26 Apr 19:23:50 19:25:31 12° 312° (NW) 19:27:04 437.465
SO-50 26 Apr 19:24:29 19:29:25 60° 35° (NE) 19:34:20 436.795
Cosmos 2504 26 Apr 19:29:03 19:30:24 10° 344° (NNW) 19:31:34 435.465 / 435.565
DANDE 26 Apr 19:34:16 19:38:07 42° 297° (WNW) 19:43:15 436.750
COMPASS 1 26 Apr 19:36:02 19:36:55 11° 49° (NE) 19:37:57 437.405
YUBILEINY 26 Apr 19:37:01 19:42:04 16° 32° (NNE) 19:47:22 435.215
M-CUBED/EXP-1 PRIME 26 Apr 19:38:46 19:42:19 24° 97° (E) 19:45:41 437.505
STRAND 1 26 Apr 19:40:52 19:44:38 21° 88° (E) 19:48:30 437.568
GOMX 1 26 Apr 19:41:54 19:45:02 20° 55° (NE) 19:48:24 467.674
Cosmos 2499 26 Apr 19:46:24 19:55:15 81° 98° (E) 20:03:44 435.465 / 435.565
GONETS M04 26 Apr 19:50:39 19:58:34 34° 305° (NW) 20:06:24
BRITE-PL 26 Apr 19:59:26 20:03:15 34° 63° (ENE) 20:07:20 437.365/2234.400
SEEDS 26 Apr 20:00:56 20:03:52 19° 57° (ENE) 20:06:54 437.485
CANX-2 26 Apr 20:10:34 20:14:09 26° 61° (ENE) 20:17:47 2200.000
DOVE 4 26 Apr 20:12:15 20:15:49 25° 58° (ENE) 20:19:38 437.250
AAUSAT CUBESAT 2 26 Apr 20:15:16 20:18:09 18° 57° (ENE) 20:21:08 437.432
CUTE 1.7 + AOD 2 26 Apr 20:19:23 20:23:04 28° 62° (ENE) 20:26:48 437.475
AUBIESAT-1 26 Apr 20:19:45 20:23:58 49° 106° (ESE) 20:27:49 437.475
HO-68 26 Apr 20:22:42 20:29:41 56° 61° (ENE) 20:36:42 435.675
CUTE-I 26 Apr 20:23:37 20:27:41 21° 272° (W) 20:31:38 437.470
CUSAT 1 26 Apr 20:31:48 20:35:10 18° 316° (NW) 20:39:00 437.405
Cubesat XI-IV 26 Apr 20:34:13 20:37:52 18° 275° (W) 20:41:22 437.490
CUBEBUG 2 26 Apr 20:39:58 20:42:49 17° 53° (NE) 20:45:50 437.445
MOZHAYETS 4 26 Apr 20:43:06 20:45:35 14° 310° (NW) 20:47:56
CUBESAT XI-V 26 Apr 20:44:13 20:48:50 72° 288° (WNW) 20:53:26 437.345
RS-15 26 Apr 20:45:43 20:56:39 55° 10° (N) 21:08:06 29.354- 29.394
PRISM 26 Apr 20:46:25 20:50:33 81° 105° (ESE) 20:54:39 437.425
CINEMA 3 26 Apr 20:47:31 20:51:20 28° 60° (ENE) 20:55:22 145.822/145.860
UWE-3 26 Apr 21:02:58 21:06:16 21° 56° (ENE) 21:09:44 435.000/436.395/437.385
SO-50 26 Apr 21:05:15 21:09:52 39° 236° (SW) 21:14:25 436.795
COMPASS 1 26 Apr 21:07:37 21:11:44 51° 69° (ENE) 21:15:54 437.405
FUNcube-1 26 Apr 21:09:27 21:12:36 20° 56° (NE) 21:15:55 145.935
M-CUBED/EXP-1 PRIME 26 Apr 21:13:12 21:17:32 53° 299° (WNW) 21:21:29 437.505
UKube-1 26 Apr 21:13:43 21:16:13 16° 52° (NE) 21:18:49 .
DELFI C3 26 Apr 21:17:29 21:20:50 25° 61° (ENE) 21:24:13 145.870
GOMX 1 26 Apr 21:18:23 21:22:41 77° 256° (WSW) 21:27:17 467.674
STRAND 1 26 Apr 21:19:22 21:24:29 78° 290° (WNW) 21:29:36 437.568
HUMSAT D 26 Apr 21:21:32 21:23:51 15° 53° (NE) 21:26:17 437.325/437.525
DANDE 26 Apr 21:22:02 21:23:28 11° 326° (NNW) 21:24:50 436.750
Cosmos 2504 26 Apr 21:27:20 21:28:54 11° 17° (NNE) 21:30:38 435.465 / 435.565
Oscar 11 26 Apr 21:30:41 21:34:47 41° 66° (ENE) 21:38:56 145.826/435.025
YUBILEINY 26 Apr 21:33:41 21:41:59 44° 62° (ENE) 21:50:16 435.215
ZACube-1 26 Apr 21:34:30 21:38:19 30° 61° (ENE) 21:42:17 437.345
SEEDS 26 Apr 21:34:55 21:39:13 80° 256° (WSW) 21:43:32 437.485
Cosmos 2491 26 Apr 21:37:34 21:42:18 17° 68° (ENE) 21:47:29 435.465 / 435.565
BRITE-PL 26 Apr 21:37:55 21:41:51 36° 265° (W) 21:45:58 437.365/2234.400
Cosmos 2499 26 Apr 21:41:26 21:49:22 35° 303° (WNW) 21:56:51 435.465 / 435.565
VELOX 1 26 Apr 21:44:17 21:46:54 16° 53° (NE) 21:49:39 145.980
CANX-2 26 Apr 21:45:38 21:49:51 52° 260° (W) 21:54:07 2200.000
CUBEBUG 1 26 Apr 21:48:49 21:48:55 10° 47° (NE) 21:49:11 437.445
DOVE 4 26 Apr 21:48:58 21:53:16 59° 260° (W) 21:57:53 437.250
AAUSAT CUBESAT 2 26 Apr 21:49:05 21:53:19 79° 256° (WSW) 21:57:35 437.432
CUTE 1.7 + AOD 2 26 Apr 21:54:40 21:58:50 47° 261° (W) 22:03:02 437.475
AUBIESAT-1 26 Apr 21:54:47 21:58:34 29° 307° (NW) 22:02:04 437.475
GONETS M04 26 Apr 21:54:51 21:59:05 14° 336° (NNW) 22:03:07
50 SAT 26 Apr 21:59:09 22:01:55 18° 57° (ENE) 22:04:45 437.505
AISAT 26 Apr 22:01:49 22:05:07 21° 57° (ENE) 22:08:31 437.250
DX 1 26 Apr 22:06:32 22:10:32 38° 64° (ENE) 22:14:35 434.975-435.025
HO-68 26 Apr 22:10:49 22:17:40 44° 263° (W) 22:24:31 435.675
CUBEBUG 2 26 Apr 22:14:23 22:18:51 82° 75° (ENE) 22:23:32 437.445
PRISM 26 Apr 22:22:45 22:25:34 18° 305° (NW) 22:28:16 437.425
CUBESAT XI-V 26 Apr 22:22:52 22:25:35 15° 308° (NW) 22:28:11 437.345
CINEMA 3 26 Apr 22:23:58 22:28:19 52° 261° (W) 22:32:55 145.822/145.860
UWE-3 26 Apr 22:37:54 22:42:21 76° 257° (WSW) 22:46:57 435.000/436.395/437.385
O/OREOS (USA 219) 26 Apr 22:39:49 22:43:22 23° 105° (ESE) 22:46:59 437.305
FUNcube-1 26 Apr 22:44:01 22:48:27 80° 256° (WSW) 22:53:00 145.935
COMPASS 1 26 Apr 22:44:11 22:47:43 24° 269° (W) 22:51:12 437.405
ESTCUBE 1 26 Apr 22:44:35 22:48:24 28° 60° (ENE) 22:52:17 437.505/2401.250
UKube-1 26 Apr 22:47:25 22:51:44 78° 72° (ENE) 22:56:05 .
M-CUBED/EXP-1 PRIME 26 Apr 22:49:18 22:51:29 13° 320° (NW) 22:53:30 437.505
DELFI C3 26 Apr 22:51:46 22:55:46 49° 260° (W) 22:59:46 145.870
HUMSAT D 26 Apr 22:54:40 22:58:56 74° 71° (ENE) 23:03:16 437.325/437.525
TIGRISAT 26 Apr 22:59:02 23:01:21 14° 83° (E) 23:03:50 435.000
RS-15 26 Apr 22:59:05 23:10:30 84° 41° (NE) 23:22:28 29.354- 29.394
STRAND 1 26 Apr 22:59:30 23:03:02 19° 309° (NW) 23:06:27 437.568
GOMX 1 26 Apr 22:59:58 23:01:51 12° 279° (W) 23:03:36 467.674
SPROUT 26 Apr 23:02:02 23:04:12 14° 52° (NE) 23:06:28 437.525
UNISAT 6 26 Apr 23:03:39 23:06:22 15° 84° (E) 23:09:13 437.425
Oscar 11 26 Apr 23:07:10 23:11:05 31° 266° (W) 23:15:00 145.826/435.025
ZACube-1 26 Apr 23:10:14 23:14:31 48° 262° (W) 23:18:56 437.345
SEEDS 26 Apr 23:13:50 23:15:49 13° 277° (W) 23:17:39 437.485
VELOX 1 26 Apr 23:18:27 23:22:51 80° 72° (ENE) 23:27:18 145.980
Cosmos 2504 26 Apr 23:19:43 23:26:16 25° 48° (NE) 23:32:38 435.465 / 435.565
CUBEBUG 1 26 Apr 23:20:14 23:24:22 46° 67° (ENE) 23:28:32 437.445
POLYITAN 1 26 Apr 23:20:35 23:21:06 10° 81° (E) 23:21:51 437.675
AAUSAT CUBESAT 2 26 Apr 23:27:53 23:29:45 12° 277° (W) 23:31:27 437.432
Cosmos 2491 26 Apr 23:28:56 23:37:24 59° 92° (E) 23:46:00 435.465 / 435.565
YUBILEINY 26 Apr 23:30:42 23:39:20 62° 267° (W) 23:47:50 435.215
50 SAT 26 Apr 23:32:15 23:36:17 75° 256° (WSW) 23:40:22 437.505
QB50P1 26 Apr 23:36:50 23:39:09 14° 85° (E) 23:41:36 145.935-145.965
AISAT 26 Apr 23:36:55 23:41:20 71° 256° (WSW) 23:45:46 437.250
Cosmos 2499 26 Apr 23:41:50 23:45:46 13° 332° (NNW) 23:49:21 435.465 / 435.565
DX 1 26 Apr 23:42:52 23:46:51 34° 264° (W) 23:50:49 434.975-435.025
ANTELSAT 26 Apr 23:44:51 23:49:05 32° 93° (E) 23:53:19 437.575/2403.000
CUBEBUG 2 26 Apr 23:53:15 23:56:15 17° 275° (W) 23:59:12 437.445
GONETS M04 26 Apr 23:59:27 00:01:14 11° 10° (N) 00:03:10
TISAT 1 27 Apr 00:00:15 00:03:54 30° 62° (ENE) 00:07:39 437.305
QB50P2 27 Apr 00:02:39 00:06:09 24° 91° (E) 00:09:41 145.880/145.840
UWE-3 27 Apr 00:17:44 00:19:49 13° 278° (W) 00:21:45 435.000/436.395/437.385
O/OREOS (USA 219) 27 Apr 00:17:52 00:22:26 66° 305° (NW) 00:26:59 437.305
NANOSAT C BR1 27 Apr 00:19:37 00:23:29 32° 95° (E) 00:27:23 145.865
ESTCUBE 1 27 Apr 00:20:41 00:25:05 51° 260° (W) 00:29:31 437.505/2401.250
FUNcube-1 27 Apr 00:23:21 00:25:39 13° 277° (W) 00:27:47 145.935
POPSAT HIP 1 27 Apr 00:23:25 00:27:22 35° 96° (E) 00:31:20 437.405
UKube-1 27 Apr 00:25:36 00:28:28 17° 272° (W) 00:31:15 .
HUMSAT D 27 Apr 00:32:18 00:35:15 18° 273° (W) 00:38:08 437.325/437.525
TIGRISAT 27 Apr 00:34:13 00:38:59 77° 104° (ESE) 00:43:41 435.000
SPROUT 27 Apr 00:35:20 00:39:36 70° 72° (ENE) 00:43:54 437.525
UNISAT 6 27 Apr 00:39:10 00:43:57 85° 105° (ESE) 00:48:39 437.425
BUGSAT 1 27 Apr 00:40:47 00:44:37 36° 97° (E) 00:48:30 437.445
ITUPSAT 1 27 Apr 00:44:44 00:48:20 22° 55° (NE) 00:52:01 437.325
DUCHIFAT 1 27 Apr 00:52:58 00:57:14 62° 102° (ESE) 01:01:29 145.980
POLYITAN 1 27 Apr 00:53:40 00:57:59 65° 102° (ESE) 01:02:17 437.675
VELOX 1 27 Apr 00:57:07 01:00:03 17° 273° (W) 01:02:52 145.980
CUBEBUG 1 27 Apr 00:57:11 01:00:56 28° 267° (W) 01:04:40 437.445
50 SAT 27 Apr 01:10:42 01:11:54 11° 277° (W) 01:12:56 437.505
QB50P1 27 Apr 01:11:23 01:15:43 90° 285° (WNW) 01:20:02 145.935-145.965
RS-15 27 Apr 01:11:45 01:22:13 43° 246° (WSW) 01:32:57 29.354- 29.394
Cosmos 2504 27 Apr 01:13:02 01:21:20 78° 75° (ENE) 01:29:00 435.465 / 435.565
BEESAT 27 Apr 01:13:46 01:18:03 34° 61° (ENE) 01:22:22 436.000
SWISSCUBE 27 Apr 01:16:24 01:20:47 37° 63° (ENE) 01:25:12 437.505
AISAT 27 Apr 01:17:14 01:18:51 11° 278° (W) 01:20:16 437.250
ANTELSAT 27 Apr 01:21:30 01:26:03 46° 294° (WNW) 01:30:31 437.575/2403.000
AIST 1 27 Apr 01:25:45 01:29:53 49° 96° (E) 01:34:03
Cosmos 2491 27 Apr 01:26:19 01:34:42 46° 297° (WNW) 01:43:06 435.465 / 435.565
YUBILEINY 27 Apr 01:29:04 01:34:28 18° 291° (WNW) 01:39:30 435.215
Oscar 19 27 Apr 01:34:44 01:36:09 11° 79° (E) 01:37:50 437.125/150
TISAT 1 27 Apr 01:35:37 01:39:37 41° 262° (W) 01:43:38 437.305
QB50P2 27 Apr 01:38:08 01:42:21 53° 292° (WNW) 01:46:33 145.880/145.840
STARS 27 Apr 01:40:17 01:41:51 12° 48° (NE) 01:43:34 437.465
CUSAT 1 27 Apr 01:50:02 01:53:41 15° 39° (NE) 01:57:54 437.405
NANOSAT C BR1 27 Apr 01:55:24 01:59:26 39° 295° (WNW) 02:03:25 145.865
GONETS M04 27 Apr 01:56:11 02:02:42 22° 42° (NE) 02:09:25
POPSAT HIP 1 27 Apr 01:59:18 02:03:17 37° 296° (WNW) 02:07:14 437.405
O/OREOS (USA 219) 27 Apr 01:59:28 02:02:45 19° 328° (NNW) 02:05:58 437.305
TIGRISAT 27 Apr 02:11:38 02:15:17 22° 304° (NW) 02:18:50 435.000
SPROUT 27 Apr 02:13:09 02:16:12 18° 272° (W) 02:19:10 437.525
BUGSAT 1 27 Apr 02:16:20 02:20:05 34° 296° (WNW) 02:23:51 437.445
UNISAT 6 27 Apr 02:16:43 02:20:12 20° 305° (NW) 02:23:35 437.425
ITUPSAT 1 27 Apr 02:20:58 02:25:47 79° 256° (WSW) 02:30:36 437.325
KKS-1 27 Apr 02:22:41 02:26:35 31° 61° (ENE) 02:30:33 437.445
DUCHIFAT 1 27 Apr 02:29:21 02:32:45 23° 301° (WNW) 02:36:04 145.980
POLYITAN 1 27 Apr 02:30:11 02:33:33 22° 302° (WNW) 02:36:52 437.675
DANDE 27 Apr 02:38:33 02:43:24 20° 48° (NE) 02:49:07 436.750
QB50P1 27 Apr 02:48:14 02:51:03 17° 305° (NW) 02:53:47 145.935-145.965
Gurwin Techsat 1B 27 Apr 02:49:47 02:52:43 15° 83° (E) 02:55:51 435.225
BEESAT 27 Apr 02:51:12 02:55:49 45° 261° (W) 03:00:26 436.000
SWISSCUBE 27 Apr 02:54:08 02:58:39 40° 263° (W) 03:03:10 437.505
ANTELSAT 27 Apr 03:00:18 03:01:49 11° 314° (NW) 03:03:10 437.575/2403.000
MOZHAYETS 4 27 Apr 03:03:42 03:04:44 11° 46° (NE) 03:05:56
AIST 1 27 Apr 03:04:12 03:07:49 25° 296° (WNW) 03:11:23
Cosmos 2504 27 Apr 03:07:07 03:14:01 31° 280° (W) 03:20:22 435.465 / 435.565
Oscar 19 27 Apr 03:11:36 03:16:46 58° 101° (E) 03:21:55 437.125/150
STARS 27 Apr 03:13:10 03:17:27 54° 68° (ENE) 03:21:48 437.465
QB50P2 27 Apr 03:16:01 03:17:24 11° 311° (NW) 03:18:40 145.880/145.840
RS-15 27 Apr 03:28:59 03:31:35 11° 270° (W) 03:33:12 29.354- 29.394
Cosmos 2491 27 Apr 03:29:02 03:34:32 17° 326° (NNW) 03:39:49 435.465 / 435.565
CUSAT 1 27 Apr 03:31:45 03:38:25 41° 62° (ENE) 03:46:08 437.405
Cosmos 2499 27 Apr 03:36:45 03:41:32 17° 36° (NE) 03:46:19 435.465 / 435.565
AIST 2 27 Apr 03:46:16 03:48:29 14° 114° (ESE) 03:50:52 435.215
ITAMSAT 1 27 Apr 03:49:41 03:54:38 43° 98° (E) 03:59:35 435.822/435.867
GONETS M04 27 Apr 03:52:58 04:01:47 63° 70° (ENE) 04:10:34
AO-7 27 Apr 03:57:53 04:02:19 16° 78° (ENE) 04:07:09 29.400- 29.500
KKS-1 27 Apr 03:58:51 04:03:07 45° 261° (W) 04:07:26 437.445
ITUPSAT 1 27 Apr 04:01:53 04:04:34 14° 276° (W) 04:07:04 437.325
AUBIESAT-1 27 Apr 04:08:37 04:10:04 11° 37° (NE) 04:11:37 437.475
BEESAT 3 27 Apr 04:08:42 04:12:42 52° 129° (SE) 04:16:45 437.485
BEESAT 2 27 Apr 04:12:07 04:16:07 48° 128° (SE) 04:20:10 435.950
DANDE 27 Apr 04:21:07 04:28:00 60° 69° (ENE) 04:36:17 436.750
JAS-2 27 Apr 04:26:15 04:30:51 20° 81° (E) 04:35:15 435.910
HORYU 2 27 Apr 04:28:11 04:31:35 21° 89° (E) 04:35:02 437.375
Gurwin Techsat 1B 27 Apr 04:28:23 04:33:44 75° 103° (ESE) 04:39:04 435.225
MOZHAYETS 4 27 Apr 04:36:34 04:40:59 46° 66° (ENE) 04:45:26
STARS 27 Apr 04:50:35 04:54:14 24° 268° (W) 04:57:52 437.465
Oscar 19 27 Apr 04:51:20 04:55:55 31° 302° (WNW) 05:00:25 437.125/150
M-CUBED/EXP-1 PRIME 27 Apr 04:59:23 05:03:10 24° 50° (NE) 05:06:57 437.505
CUSAT 1 27 Apr 05:14:23 05:21:35 67° 261° (W) 05:29:48 437.405
AIST 2 27 Apr 05:22:09 05:26:25 71° 133° (SE) 05:30:43 435.215
O/OREOS (USA 219) 27 Apr 05:23:37 05:25:33 12° 19° (NNE) 05:27:33 437.305
STRAND 1 27 Apr 05:27:29 05:30:17 15° 47° (NE) 05:33:13 437.568
ITAMSAT 1 27 Apr 05:29:20 05:34:09 40° 298° (WNW) 05:38:57 435.822/435.867
Cosmos 2499 27 Apr 05:29:31 05:37:16 49° 65° (ENE) 05:44:27 435.465 / 435.565
AUBIESAT-1 27 Apr 05:39:24 05:43:50 38° 57° (ENE) 05:48:11 437.475
BEESAT 3 27 Apr 05:46:56 05:50:51 40° 331° (NNW) 05:54:48 437.485
AO-7 27 Apr 05:49:05 05:57:16 58° 103° (ESE) 06:05:30 29.400- 29.500
GONETS M04 27 Apr 05:50:14 05:58:24 42° 275° (W) 06:06:26
BEESAT 2 27 Apr 05:50:21 05:54:20 42° 330° (NNW) 05:58:20 435.950
HORYU 2 27 Apr 06:04:11 06:08:42 66° 290° (WNW) 06:13:10 437.375
DANDE 27 Apr 06:04:34 06:11:15 44° 267° (W) 06:18:58 436.750
Gurwin Techsat 1B 27 Apr 06:08:57 06:13:18 26° 305° (NW) 06:17:35 435.225
PRISM 27 Apr 06:09:02 06:12:26 25° 60° (ENE) 06:15:52 437.425
JAS-2 27 Apr 06:10:29 06:17:13 86° 105° (ESE) 06:23:04 435.910
MOZHAYETS 4 27 Apr 06:14:13 06:18:23 31° 267° (W) 06:22:31
CUBESAT XI-V 27 Apr 06:17:41 06:22:01 42° 66° (ENE) 06:26:25 437.345
M-CUBED/EXP-1 PRIME 27 Apr 06:32:43 06:37:35 82° 250° (WSW) 06:42:23 437.505
CUTE-I 27 Apr 06:51:59 06:55:37 19° 86° (E) 06:59:24 437.470
CUSAT 1 27 Apr 06:58:18 07:03:28 20° 280° (W) 07:08:45 437.405
AIST 2 27 Apr 07:01:22 07:05:21 35° 335° (NNW) 07:09:19 435.215
Cubesat XI-IV 27 Apr 07:01:53 07:05:57 22° 88° (E) 07:10:07 437.490
O/OREOS (USA 219) 27 Apr 07:02:21 07:06:25 32° 43° (NE) 07:10:29 437.305
STRAND 1 27 Apr 07:03:36 07:08:38 60° 67° (ENE) 07:13:41 437.568
ITAMSAT 1 27 Apr 07:11:00 07:12:28 11° 319° (NW) 07:13:46 435.822/435.867
AUBIESAT-1 27 Apr 07:13:57 07:18:34 44° 256° (WSW) 07:23:05 437.475
Cosmos 2499 27 Apr 07:22:57 07:30:34 50° 270° (W) 07:37:35 435.465 / 435.565
BEESAT 3 27 Apr 07:26:29 07:29:47 22° 354° (N) 07:33:05 437.485
BEESAT 2 27 Apr 07:29:59 07:33:21 23° 353° (N) 07:36:41 435.950
Cosmos 2491 27 Apr 07:33:03 07:38:21 17° 34° (NNE) 07:43:54 435.465 / 435.565
HORYU 2 27 Apr 07:42:09 07:44:37 14° 310° (NW) 07:46:57 437.375
AO-7 27 Apr 07:42:10 07:50:07 51° 306° (NW) 07:58:00 29.400- 29.500
PRISM 27 Apr 07:43:37 07:47:41 51° 259° (W) 07:51:46 437.425
GONETS M04 27 Apr 07:50:38 07:52:51 11° 299° (WNW) 07:54:33
DANDE 27 Apr 07:50:44 07:53:16 12° 286° (WNW) 07:55:26 436.750
CUBESAT XI-V 27 Apr 07:55:24 07:59:37 33° 266° (W) 08:03:47 437.345
JAS-2 27 Apr 07:56:04 08:01:35 27° 310° (NW) 08:06:30 435.910
M-CUBED/EXP-1 PRIME 27 Apr 08:10:02 08:13:08 16° 268° (W) 08:16:04 437.505
PCSat 27 Apr 08:28:29 08:32:28 22° 111° (ESE) 08:36:35 145.827
CUTE-I 27 Apr 08:31:09 08:36:31 90° 299° (WNW) 08:41:52 437.470
Cubesat XI-IV 27 Apr 08:41:22 08:46:43 77° 290° (WNW) 08:52:03 437.490
AIST 2 27 Apr 08:41:29 08:44:57 23° 358° (N) 08:48:24 435.215
O/OREOS (USA 219) 27 Apr 08:41:41 08:46:06 53° 245° (WSW) 08:50:27 437.305
STRAND 1 27 Apr 08:43:53 08:48:14 27° 268° (W) 08:52:33 437.568
BEESAT 3 27 Apr 09:05:21 09:08:55 27° 17° (NNE) 09:12:27 437.485
BEESAT 2 27 Apr 09:09:01 09:12:34 26° 16° (NNE) 09:16:07 435.950
GOMX 1 27 Apr 09:12:28 09:16:23 22° 88° (E) 09:20:34 467.674
SEEDS 27 Apr 09:14:02 09:15:26 12° 82° (E) 09:17:02 437.485
ANTELSAT 27 Apr 09:16:46 09:19:12 15° 50° (NE) 09:21:48 437.575/2403.000
Cosmos 2499 27 Apr 09:18:41 09:21:45 12° 294° (WNW) 09:24:21 435.465 / 435.565
CANX-2 27 Apr 09:24:21 09:27:19 18° 87° (E) 09:30:21 2200.000
AAUSAT CUBESAT 2 27 Apr 09:27:03 09:28:11 11° 82° (E) 09:29:31 437.432
Cosmos 2491 27 Apr 09:29:45 09:38:11 46° 63° (ENE) 09:46:39 435.465 / 435.565
HO-68 27 Apr 09:30:03 09:36:03 28° 89° (E) 09:42:11 435.675
CUTE 1.7 + AOD 2 27 Apr 09:33:06 09:36:15 20° 88° (E) 09:39:27 437.475
BRITE-PL 27 Apr 09:33:40 09:38:25 42° 97° (E) 09:43:32 437.365/2234.400
AO-7 27 Apr 09:35:19 09:41:15 22° 331° (NNW) 09:47:02 29.400- 29.500
DOVE 4 27 Apr 09:40:15 09:44:29 26° 90° (E) 09:48:53 437.250
JAS-2 27 Apr 09:43:18 09:44:28 10° 335° (NNW) 09:45:27 435.910
NANOSAT C BR1 27 Apr 09:46:25 09:48:06 12° 50° (NE) 09:49:55 145.865
POPSAT HIP 1 27 Apr 09:50:08 09:52:05 13° 51° (NE) 09:54:10 437.405
CUBEBUG 2 27 Apr 09:59:46 10:01:49 13° 81° (E) 10:04:04 437.445
TIGRISAT 27 Apr 10:04:11 10:08:06 28° 60° (ENE) 10:12:08 435.000
BUGSAT 1 27 Apr 10:05:21 10:06:59 12° 51° (NE) 10:08:44 437.445
UNISAT 6 27 Apr 10:09:09 10:13:13 31° 61° (ENE) 10:17:23 437.425
PCSat 27 Apr 10:09:51 10:15:18 88° 131° (SE) 10:20:47 145.827
CINEMA 3 27 Apr 10:11:20 10:15:30 27° 90° (E) 10:19:47 145.822/145.860
CUTE-I 27 Apr 10:12:00 10:16:02 22° 308° (NW) 10:20:00 437.470
DUCHIFAT 1 27 Apr 10:18:05 10:21:09 20° 57° (ENE) 10:24:18 145.980
POLYITAN 1 27 Apr 10:19:13 10:22:25 21° 57° (ENE) 10:25:42 437.675
COMPASS 1 27 Apr 10:19:32 10:23:27 35° 95° (E) 10:27:20 437.405
AIST 2 27 Apr 10:20:45 10:24:37 31° 22° (NNE) 10:28:28 435.215
UWE-3 27 Apr 10:21:29 10:24:21 16° 85° (E) 10:27:21 435.000/436.395/437.385
Cubesat XI-IV 27 Apr 10:22:23 10:26:08 19° 310° (NW) 10:29:46 437.490
DELFI C3 27 Apr 10:24:58 10:27:18 15° 86° (E) 10:29:44 145.870
FUNcube-1 27 Apr 10:26:26 10:28:51 14° 83° (E) 10:31:25 145.935
QB50P1 27 Apr 10:36:09 10:39:44 28° 61° (ENE) 10:43:23 145.935-145.965
BEESAT 3 27 Apr 10:43:23 10:47:32 71° 39° (NE) 10:51:37 437.485
YUBILEINY 27 Apr 10:44:42 10:52:24 37° 83° (E) 11:00:13 435.215
Oscar 11 27 Apr 10:46:46 10:50:38 30° 94° (E) 10:54:30 145.826/435.025
BEESAT 2 27 Apr 10:47:10 10:51:20 67° 39° (NE) 10:55:26 435.950
SEEDS 27 Apr 10:47:49 10:52:07 75° 103° (ESE) 10:56:21 437.485
GOMX 1 27 Apr 10:49:59 10:55:02 76° 288° (WNW) 11:00:23 467.674
ANTELSAT 27 Apr 10:50:37 10:55:11 64° 70° (ENE) 10:59:52 437.575/2403.000
ZACube-1 27 Apr 10:51:48 10:55:27 23° 89° (E) 10:59:10 437.345
CANX-2 27 Apr 10:59:27 11:03:46 70° 289° (WNW) 11:08:02 2200.000
AAUSAT CUBESAT 2 27 Apr 11:00:27 11:04:41 73° 103° (ESE) 11:08:52 437.432
QB50P2 27 Apr 11:02:22 11:06:24 45° 67° (ENE) 11:10:31 145.880/145.840
CUTE 1.7 + AOD 2 27 Apr 11:08:20 11:12:37 64° 289° (WNW) 11:16:51 437.475
BRITE-PL 27 Apr 11:12:20 11:16:58 40° 295° (WNW) 11:21:54 437.365/2234.400
HO-68 27 Apr 11:17:25 11:24:40 82° 292° (WNW) 11:31:51 435.675
DOVE 4 27 Apr 11:17:36 11:22:36 64° 290° (WNW) 11:27:48 437.250
NANOSAT C BR1 27 Apr 11:19:01 11:23:11 61° 70° (ENE) 11:27:23 145.865
AISAT 27 Apr 11:21:34 11:23:56 14° 85° (E) 11:26:27 437.250
POPSAT HIP 1 27 Apr 11:23:04 11:27:15 66° 71° (ENE) 11:31:30 437.405
DX 1 27 Apr 11:23:42 11:27:19 25° 93° (E) 11:30:58 434.975-435.025
AIST 1 27 Apr 11:25:19 11:29:04 29° 66° (ENE) 11:32:50
Cosmos 2491 27 Apr 11:26:50 11:35:28 60° 268° (W) 11:44:04 435.465 / 435.565
AO-7 27 Apr 11:27:00 11:31:06 15° 359° (N) 11:35:12 29.400- 29.500
SO-50 27 Apr 11:28:31 11:30:43 13° 111° (ESE) 11:33:08 436.795
CUBEBUG 2 27 Apr 11:34:40 11:39:27 70° 103° (ESE) 11:44:14 437.445
BUGSAT 1 27 Apr 11:37:46 11:41:46 66° 71° (ENE) 11:45:49 437.445
TIGRISAT 27 Apr 11:40:07 11:44:37 54° 260° (W) 11:49:14 435.000
UNISAT 6 27 Apr 11:45:23 11:49:51 48° 262° (W) 11:54:25 437.425
CINEMA 3 27 Apr 11:48:10 11:53:03 60° 290° (WNW) 11:58:01 145.822/145.860
DUCHIFAT 1 27 Apr 11:52:22 11:56:34 71° 257° (WSW) 12:00:50 145.980
POLYITAN 1 27 Apr 11:53:44 11:57:58 67° 257° (WSW) 12:02:15 437.675
PCSat 27 Apr 11:54:23 11:59:20 34° 334° (NNW) 12:04:17 145.827
COMPASS 1 27 Apr 11:55:16 11:59:09 35° 295° (WNW) 12:02:57 437.405
UWE-3 27 Apr 11:56:52 12:01:36 89° 104° (ESE) 12:06:19 435.000/436.395/437.385
DELFI C3 27 Apr 11:58:57 12:03:02 79° 287° (WNW) 12:07:03 145.870
AIST 2 27 Apr 11:59:21 12:03:39 86° 224° (SW) 12:07:53 435.215
FUNcube-1 27 Apr 12:01:21 12:06:00 82° 104° (ESE) 12:10:36 145.935
UKube-1 27 Apr 12:03:46 12:08:01 51° 101° (E) 12:12:16 .
ESTCUBE 1 27 Apr 12:06:26 12:09:50 21° 89° (E) 12:13:18 437.505/2401.250
HUMSAT D 27 Apr 12:07:16 12:11:33 52° 100° (E) 12:15:48 437.325/437.525
Cosmos 2504 27 Apr 12:11:04 12:15:27 16° 68° (ENE) 12:20:11 435.465 / 435.565
QB50P1 27 Apr 12:11:21 12:15:27 47° 261° (W) 12:19:35 145.935-145.965
BEESAT 3 27 Apr 12:21:52 12:25:13 24° 240° (WSW) 12:28:27 437.485
Oscar 11 27 Apr 12:22:49 12:26:58 42° 294° (WNW) 12:31:04 145.826/435.025
SEEDS 27 Apr 12:24:23 12:27:29 19° 303° (WNW) 12:30:29 437.485
BEESAT 2 27 Apr 12:25:41 12:29:09 25° 239° (WSW) 12:32:32 435.950
ZACube-1 27 Apr 12:27:38 12:32:14 62° 290° (WNW) 12:36:47 437.345
ANTELSAT 27 Apr 12:28:45 12:32:26 23° 271° (W) 12:36:07 437.575/2403.000
GOMX 1 27 Apr 12:29:08 12:32:32 18° 307° (NW) 12:35:57 467.674
CANX-2 27 Apr 12:36:44 12:39:00 14° 308° (NW) 12:41:09 2200.000
AAUSAT CUBESAT 2 27 Apr 12:36:50 12:39:54 19° 303° (WNW) 12:42:52 437.432
50 SAT 27 Apr 12:36:53 12:40:57 64° 102° (ESE) 12:44:57 437.505
CUBEBUG 1 27 Apr 12:37:58 12:41:57 33° 96° (E) 12:45:56 437.445
VELOX 1 27 Apr 12:38:07 12:42:32 58° 102° (ESE) 12:46:56 145.980
QB50P2 27 Apr 12:38:49 12:42:30 27° 267° (W) 12:46:10 145.880/145.840
Gurwin Techsat 1B 27 Apr 12:41:25 12:43:37 13° 43° (NE) 12:45:58 435.225
CUTE 1.7 + AOD 2 27 Apr 12:45:47 12:47:48 13° 309° (NW) 12:49:39 437.475
ISS 27 Apr 12:46:28 12:48:07 13° 146° (SE) 12:49:49 145.825
BRITE-PL 27 Apr 12:53:42 12:54:27 10° 315° (NW) 12:55:01 437.365/2234.400
